Keps
Threads by month
- ----- 2025 -----
- February
- January
- ----- 2024 -----
- December
- November
- October
- September
- August
- July
- June
- May
- April
- March
- February
- January
- ----- 2023 -----
- December
- November
- October
- September
- August
- July
- June
- May
- April
- March
- February
- January
- ----- 2022 -----
- December
- November
- October
- September
- August
- July
- June
- May
- April
- March
- February
- January
- ----- 2021 -----
- December
- November
- October
- September
- August
- July
- June
- May
- April
- March
- February
- January
- ----- 2020 -----
- December
- November
- October
- September
- August
- July
- June
- May
- April
- March
- February
- January
- ----- 2019 -----
- December
- November
- October
- September
- August
- July
- June
- May
- April
- March
- February
- January
- ----- 2018 -----
- December
- November
- October
- September
- August
- July
- June
- May
- April
- March
- February
- January
- ----- 2017 -----
- December
- November
- October
- September
- August
- July
- June
- May
- April
- March
- February
- January
- ----- 2016 -----
- December
- November
- October
- September
- August
- July
- June
- May
- April
- March
- February
- January
- ----- 2015 -----
- December
- November
- October
- September
- August
- July
- June
- May
- April
- March
- February
- January
- ----- 2014 -----
- December
- November
- October
- September
- August
- July
- June
- May
- April
- March
- February
- January
- ----- 2013 -----
- December
- November
- October
- September
- August
- July
- June
- May
- April
- March
- February
- January
- ----- 2012 -----
- December
- November
- October
- September
- August
- July
- June
- May
- April
- March
- February
- January
- ----- 2011 -----
- December
- November
- October
- September
- August
- July
- June
- May
- April
- March
- February
- January
- ----- 2010 -----
- December
- November
- October
- September
- August
- July
- June
- May
- April
- March
- February
- January
- ----- 2009 -----
- December
- November
- October
- September
- August
- July
- June
- May
- April
- March
- February
- January
- ----- 2008 -----
- December
- November
- October
- September
- August
- July
- June
- May
- April
- March
- February
- January
- ----- 2007 -----
- December
- November
- October
- September
- August
- July
- June
- May
- April
- March
- February
- January
- ----- 2006 -----
- December
- November
- October
- September
October 2015
- 1 participants
- 10 discussions
SB KEPS @ AMSAT $ORB15302.N
2Line Orbital Elements 15302.AMSAT
HR AMSAT ORBITAL ELEMENTS FOR AMATEUR SATELLITES IN NASA FORMAT
FROM WA5QGD FORT WORTH,TX October 29, 2015
BID: ORB15302.N
DECODE 2-LINE ELSETS WITH THE FOLLOWING KEY:
1 AAAAAU 00 0 0 BBBBB.BBBBBBBB .CCCCCCCC 00000-0 00000-0 0 DDDZ
2 AAAAA EEE.EEEE FFF.FFFF GGGGGGG HHH.HHHH III.IIII JJ.JJJJJJJJKKKKKZ
KEY: A-CATALOGNUM B-EPOCHTIME C-DECAY D-ELSETNUM E-INCLINATION F-RAAN
G-ECCENTRICITY H-ARGPERIGEE I-MNANOM J-MNMOTION K-ORBITNUM Z-CHECKSUM
TO ALL RADIO AMATEURS BT
AO-07
1 07530U 74089B 15302.86650304 -.00000045 00000-0 -93937-5 0 9993
2 07530 101.5403 274.5919 0012365 41.6616 12.9088 12.53617436874138
FO-29
1 24278U 96046B 15302.06650076 -.00000004 00000-0 28921-4 0 9990
2 24278 98.5603 252.8628 0351402 83.8166 330.3330 13.53058344948132
SO-33
1 25509U 98061B 15301.90544684 .00000274 00000-0 40662-4 0 9990
2 25509 031.4317 213.2600 0347530 165.8869 195.1753 14.30086334889100
RS-22
1 27939U 03042A 15302.79899537 .00000664 00000-0 12897-3 0 9993
2 27939 97.8562 98.8481 0012708 325.4213 34.6169 14.66194607645913
HO-68
1 36122U 09072B 15302.77350854 -.00000059 00000-0 -43517-4 0 9992
2 36122 100.1771 342.6818 0007579 165.4892 194.6443 13.16330043282162
AO-73
1 39444U 13066AE 15302.46399585 .00001310 00000-0 17223-3 0 9993
2 39444 97.7153 0.2109 0060667 58.6529 302.0601 14.80566410103281
EO-79
1 40025U 14033R 15302.76933761 .00001460 00000-0 16706-3 0 9999
2 40025 97.9400 203.1481 0014217 101.6637 258.6175 14.87472816 73798
XW-2A
1 40903U 15049E 15302.87158745 .00006192 00000-0 19191-3 0 9993
2 40903 97.4533 310.5361 0015460 239.3852 241.1988 15.33689672 6061
XW-2C
1 40906U 15049H 15302.91251255 .00003326 00000-0 19490-3 0 9999
2 40906 97.4556 310.1544 0017545 112.4541 294.8901 15.12349774 6030
LILACSAT-2
1 40908U 15049K 15302.87391297 .00001923 00000-0 11607-3 0 9990
2 40908 97.4616 310.1166 0018260 106.9998 13.7021 15.11768716 6028
XW-2E
1 40909U 15049L 15302.85253652 .00005272 00000-0 30386-3 0 9997
2 40909 97.4550 310.1116 0016764 115.4790 6.0684 15.12696499 6022
UO-11
1 14781U 84021B 15302.75514830 .00000540 00000-0 73581-4 0 9997
2 14781 97.7848 356.4098 0008450 1.5658 358.5581 14.82552200701960
AO-16
1 20439U 90005D 15302.39176800 .00000109 00000-0 56322-4 0 9999
2 20439 98.5507 236.6718 0011774 120.8111 351.4913 14.32579908345951
LO-19
1 20442U 90005G 15302.77689909 .00000091 00000-0 49292-4 0 9992
2 20442 98.5214 236.1996 0012851 108.4279 251.8304 14.32769674346215
AO-27
1 22825U 93061C 15301.85543962 .00000082 00000-0 49414-4 0 9996
2 22825 98.7255 252.1029 0007345 279.6044 133.5127 14.29912463152044
IO-26
1 22826U 93061D 15302.08182512 .00000094 00000-0 53464-4 0 9996
2 22826 98.7198 252.4809 0007834 269.0446 90.9839 14.30232420152228
GO-32
1 25397U 98043D 15302.84245118 .00000039 00000-0 35800-4 0 9996
2 25397 98.5364 249.1628 0000625 358.8705 54.2754 14.23566229898950
NO-44
1 26931U 01043C 15302.33644201 .00000096 00000-0 68945-4 0 9994
2 26931 67.0513 191.0418 0006527 277.2330 82.8029 14.30353907734988
SO-50
1 27607U 02058C 15302.09406350 .00000447 00000-0 83797-4 0 9998
2 27607 64.5539 149.8696 0082734 262.7174 96.4519 14.74894612691031
CO-55
1 27844U 03031E 15302.87363694 .00000201 00000-0 11094-3 0 9990
2 27844 98.6957 309.4863 0008618 272.0799 87.9392 14.21863716639570
CO-57
1 27848U 03031J 15302.02410421 .00000164 00000-0 94795-4 0 9990
2 27848 98.7055 308.6254 0008553 283.6356 137.6639 14.21501867639364
AO-51
1 28375U 04025K 15301.84260205 .00000174 00000-0 64577-4 0 9998
2 28375 98.3043 238.5181 0081528 286.2910 72.9324 14.41712129595743
CP3
1 31129U 07012N 15302.90397425 .00000745 00000-0 16974-3 0 9992
2 31129 97.9989 262.9589 0094939 253.9010 168.4206 14.56013706452724
CO-65
1 32785U 08021C 15302.21874752 .00001099 00000-0 12795-3 0 9999
2 32785 97.6337 340.7521 0013008 350.6391 51.8791 14.87148375406158
PRISM
1 33493U 09002B 15302.88409122 .00003739 00000-0 35674-3 0 9998
2 33493 98.2391 146.8515 0014689 248.0347 111.9261 14.93918925366683
SOHLA-1
1 33496U 09002E 15302.40527435 .00000371 00000-0 68160-4 0 9993
2 33496 98.2308 71.5820 0007610 97.1297 298.8579 14.71455086362919
TISAT-1
1 36799U 10035E 15302.84644991 .00002492 00000-0 27053-3 0 9996
2 36799 98.0218 44.8719 0013968 123.1324 357.3075 14.89014053286999
STUDSAT
1 36801U 10035G 15302.86720454 .00020826 00000-0 10751-2 0 9998
2 36801 98.0751 70.2995 0005793 44.6976 315.4721 15.16338812288359
ALMASAT-1
1 38078U 12006B 15302.20856304 .00031290 33648-5 51488-3 0 9997
2 38078 69.4517 260.7165 0444501 70.7931 294.0757 14.86735920194904
CUBEBUG-1
1 39153U 13018D 15302.81908554 .00001191 00000-0 16608-3 0 9991
2 39153 98.0119 26.7764 0017369 173.9508 186.1916 14.79485977135385
ESTCUBE-1
1 39161U 13021C 15302.72389721 .00001043 00000-0 17667-3 0 9995
2 39161 98.0650 24.4415 0008456 245.1584 114.8738 14.71363726133023
DUCHIFAT-1
1 40021U 14033M 15302.70816928 .00001944 00000-0 21484-3 0 9990
2 40021 97.9420 203.6579 0014913 101.3337 258.9556 14.88510453 73816
NANOSATCBR1
1 40024U 14033Q 15302.67143847 .00001943 00000-0 21732-3 0 9997
2 40024 97.9402 203.2839 0014099 100.9146 259.3658 14.88031161 73791
DTUSAT-2
1 40030U 14033W 15302.69386397 .00001527 00000-0 17608-3 0 9990
2 40030 97.9385 202.7111 0013701 95.7817 264.4961 14.87102685 73760
ANTELSAT
1 40034U 14033AA 15302.69265475 .00001347 00000-0 21165-3 0 9990
2 40034 97.9262 191.6656 0060937 49.0474 311.5983 14.72971980 73092
MET-2/21
1 22782U 93055A 15302.64219178 .00000035 00000-0 18200-4 0 9995
2 22782 82.5469 136.9894 0021425 305.9882 117.0724 13.83777724119198
OKEAN-4
1 23317U 94066A 15302.84030273 .00000800 00000-0 86672-4 0 9990
2 23317 82.5360 318.9294 0018637 241.1358 247.2388 14.86877958137319
NOAA-14
1 23455U 94089A 15302.50805057 .00000029 00000-0 37820-4 0 9995
2 23455 98.7442 21.1434 0010375 61.2586 59.0735 14.14056493 74517
NOAA-15
1 25338U 98030A 15302.55699836 .00000081 00000-0 53218-4 0 9995
2 25338 98.7786 301.3263 0011360 134.3568 225.8544 14.25671384907981
RESURS
1 25394U 98043A 15302.86412777 .00000002 00000-0 19220-4 0 9990
2 25394 98.4829 253.1955 0000520 187.9215 228.7578 14.24459468899456
FENGYUN1
1 25730U 99025A 15302.86980505 .00000500 00000-0 28814-3 0 9995
2 25730 98.9544 267.7785 0020537 115.3723 274.0232 14.13674920848084
OKEAN-0
1 25860U 99039A 15302.54516855 .00000524 00000-0 83368-4 0 9994
2 25860 98.1126 270.9549 0000884 95.6795 19.2035 14.76174357875800
NOAA-16
1 26536U 00055A 15302.48367534 .00000049 00000-0 50349-4 0 9991
2 26536 98.9283 8.2371 0010080 207.9068 152.1565 14.13112551778624
NOAA-17
1 27453U 02032A 15302.55169818 .00000025 00000-0 28460-4 0 9993
2 27453 98.3551 281.9915 0012267 143.8850 216.3161 14.24905087693790
NOAA-18
1 28654U 05018A 15302.53416436 .00000047 00000-0 50886-4 0 9994
2 28654 99.1927 298.5146 0013563 306.8180 53.1746 14.12242962538031
NOAA-19
1 33591U 09005A 15302.59222571 .00000189 00000-0 12808-3 0 9999
2 33591 99.0066 252.8936 0014409 147.6828 212.5228 14.11994558346453
HUBBLE
1 20580U 90037B 15302.54111166 .00001955 00000-0 11319-3 0 9998
2 20580 28.4708 347.9199 0003099 229.7726 130.2623 15.07818645200109
ISS
1 25544U 98067A 15302.87262005 .00009799 00000-0 15193-3 0 9997
2 25544 51.6441 131.8732 0006687 90.3807 47.6338 15.54685754968994
CO-58
1 28895U 05043F 15302.18762292 .00000700 00000-0 14518-3 0 9991
2 28895 97.8216 122.9907 0015978 230.3936 129.5857 14.62946923533186
